FW5980 Weather Reports


time (UTC)temp
C
wind
direction
speed
KPH
gust
KPH
rain 1hr
cm
rain 24hr
cm
rain mn
cm
humidity
%
barometer
mb
20260504234733 22 330 1.6 17.7 0.00 0.00 0.00 29 1003.8
20260504234234 22 331 3.2 19.3 0.00 0.00 0.00 28 1003.7
20260504233732 22 6 3.2 24.1 0.00 0.00 0.00 28 1003.9
20260504233232 22 308 1.6 24.1 0.00 0.00 0.00 29 1003.9
20260504232233 22 33 3.2 24.1 0.00 0.00 0.00 29 1003.6
20260504231233 22 21 3.2 22.5 0.00 0.00 0.00 28 1003.9
20260504230734 23 328 3.2 20.9 0.00 0.00 0.00 27 1003.7
20260504230234 23 304 3.2 19.3 0.00 0.00 0.00 27 1003.5
20260504225733 23 27 3.2 19.3 0.00 0.00 0.00 27 1003.4
20260504225233 23 15 1.6 17.7 0.00 0.00 0.00 27 1003.5
20260504224732 24 31 4.8 20.9 0.00 0.00 0.00 27 1003.4
20260504224230 24 295 6.4 24.1 0.00 0.00 0.00 28 1003.0
20260504223728 24 11 3.2 24.1 0.00 0.00 0.00 27 1003.1
20260504223227 24 0 3.2 19.3 0.00 0.00 0.00 26 1002.9
20260504222726 25 44 1.6 19.3 0.00 0.00 0.00 26 1002.7
20260504221727 24 14 3.2 19.3 0.00 0.00 0.00 26 1002.4
20260504221225 24 333 3.2 22.5 0.00 0.00 0.00 26 1002.2
20260504220723 25 14 1.6 22.5 0.00 0.00 0.00 26 1002.3
20260504220221 25 15 1.6 16.1 0.00 0.00 0.00 26 1002.1
20260504215720 25 350 1.6 17.7 0.00 0.00 0.00 26 1002.2
20260504215221 25 68 1.6 29.0 0.00 0.00 0.00 25 1002.1
20260504214721 26 1 1.6 29.0 0.00 0.00 0.00 26 1002.0
20260504214221 26 349 3.2 20.9 0.00 0.00 0.00 26 1001.8
20260504213718 26 358 3.2 20.9 0.00 0.00 0.00 27 1001.7
20260504213218 26 341 3.2 20.9 0.00 0.00 0.00 27 1001.7
20260504212719 26 30 3.2 16.1 0.00 0.00 0.00 28 1001.7
20260504212219 26 8 4.8 19.3 0.00 0.00 0.00 27 1001.7
20260504211718 26 328 1.6 19.3 0.00 0.00 0.00 27 1001.6
20260504211219 26 23 1.6 17.7 0.00 0.00 0.00 29 1001.6
20260504210720 26 303 1.6 19.3 0.00 0.00 0.00 28 1001.5
20260504210218 26 351 1.6 19.3 0.00 0.00 0.00 28 1001.6
20260504205719 26 30 1.6 19.3 0.00 0.00 0.00 30 1001.5
20260504205219 26 319 3.2 19.3 0.00 0.00 0.00 29 1001.6
20260504204717 26 330 3.2 20.9 0.00 0.00 0.00 30 1001.5
20260504204217 26 4 3.2 20.9 0.00 0.00 0.00 30 1001.5
20260504203716 26 23 1.6 14.5 0.00 0.00 0.00 31 1001.5
20260504203216 26 335 3.2 17.7 0.00 0.00 0.00 30 1001.6
20260504202716 27 328 3.2 17.7 0.00 0.00 0.00 32 1001.6
20260504202216 26 24 3.2 16.1 0.00 0.00 0.00 29 1001.4
20260504201717 27 336 3.2 16.1 0.00 0.00 0.00 29 1001.4
20260504201217 27 319 1.6 19.3 0.00 0.00 0.00 28 1001.3
20260504200717 27 337 1.6 19.3 0.00 0.00 0.00 27 1001.3
20260504200217 27 324 1.6 12.9 0.00 0.00 0.00 28 1001.3
20260504195215 27 347 1.6 22.5 0.00 0.00 0.00 28 1001.2
20260504194715 27 9 1.6 19.3 0.00 0.00 0.00 26 1001.2
20260504194214 27 275 1.6 19.3 0.00 0.00 0.00 26 1001.2
20260504193714 27 333 1.6 17.7 0.00 0.00 0.00 26 1001.2
20260504193216 27 332 1.6 17.7 0.00 0.00 0.00 25 1001.2
20260504192713 28 333 3.2 19.3 0.00 0.00 0.00 25 1001.1
20260504191713 27 312 3.2 17.7 0.00 0.00 0.00 26 1001.1
20260504190710 28 316 1.6 22.5 0.00 0.00 0.00 27 1001.0
20260504190211 28 321 1.6 12.9 0.00 0.00 0.00 25 1001.1
20260504185710 27 300 1.6 12.9 0.00 0.00 0.00 25 1001.1
20260504185210 27 327 1.6 17.7 0.00 0.00 0.00 24 1001.0
20260504184710 27 287 1.6 17.7 0.00 0.00 0.00 25 1001.0
20260504184210 27 257 1.6 16.1 0.00 0.00 0.00 25 1001.1
20260504183711 27 291 1.6 16.1 0.00 0.00 0.00 27 1001.1
20260504183212 27 316 1.6 16.1 0.00 0.00 0.00 26 1000.9
20260504182212 27 301 1.6 22.5 0.00 0.00 0.00 25 1001.0
20260504181710 27 257 1.6 22.5 0.00 0.00 0.00 23 1001.0
20260504181209 27 325 1.6 17.7 0.00 0.00 0.00 24 1001.0
20260504180709 27 295 3.2 20.9 0.00 0.00 0.00 23 1001.0
20260504180208 27 285 3.2 20.9 0.00 0.00 0.00 24 1001.0
20260504175210 27 330 3.2 27.4 0.00 0.00 0.00 23 1001.0
20260504174209 27 275 1.6 20.9 0.00 0.00 0.00 26 1001.1
20260504173709 27 285 0.0 8.0 0.00 0.00 0.00 26 1001.2
20260504173209 27 266 0.0 8.0 0.00 0.00 0.00 26 1001.3
20260504172209 27 292 1.6 12.9 0.00 0.00 0.00 25 1001.3
20260504171710 26 286 1.6 12.9 0.00 0.00 0.00 27 1001.3
20260504171209 26 264 3.2 20.9 0.00 0.00 0.00 28 1001.5
20260504170710 26 318 3.2 20.9 0.00 0.00 0.00 27 1001.5
20260504170209 26 296 0.0 11.3 0.00 0.00 0.00 29 1001.6
20260504160202 23 261 0.0 3.2 0.00 0.00 0.00 38 1001.8
20260504150659 20 262 0.0 3.2 0.00 0.00 0.00 46 1002.2
20260504150159 20 284 0.0 0.0 0.00 0.00 0.00 46 1002.1
20260504140657 17 314 0.0 0.0 0.00 0.00 0.00 51 1002.3
20260504140157 17 333 0.0 0.0 0.00 0.00 0.00 50 1002.3
20260504130652 13 313 0.0 0.0 0.00 0.00 0.00 62 1002.3
20260504130154 13 286 0.0 0.0 0.00 0.00 0.00 64 1002.1
20260504120152 9 286 0.0 0.0 0.00 0.00 0.00 81 1001.5
20260504110652 8 286 0.0 0.0 0.00 0.00 0.00 80 1001.6
20260504110150 8 286 0.0 0.0 0.00 0.00 0.00 79 1001.6
20260504100150 9 286 0.0 0.0 0.00 0.00 0.00 77 1001.9
20260504081152 11 333 0.0 0.0 0.00 0.00 0.00 70 1003.1
20260504080650 11 333 0.0 0.0 0.00 0.00 0.00 69 1003.1
20260504080152 11 333 0.0 0.0 0.00 0.00 0.00 68 1003.1
20260504070151 11 333 0.0 0.0 0.00 0.00 0.00 65 1004.4
20260504050650 13 333 0.0 0.0 0.00 0.00 0.00 55 1005.7
20260504050151 14 333 0.0 0.0 0.00 0.00 0.00 56 1005.8
20260504045649 14 333 0.0 0.0 0.00 0.00 0.00 56 1005.8
20260504045149 14 55 0.0 0.0 0.00 0.00 0.00 55 1005.9
20260504044649 14 55 0.0 0.0 0.00 0.00 0.00 50 1006.0
20260504044150 14 55 0.0 0.0 0.00 0.00 0.00 51 1006.0
20260504043649 14 55 0.0 0.0 0.00 0.00 0.00 51 1006.2
20260504043150 15 55 0.0 0.0 0.00 0.00 0.00 49 1006.3
20260504042648 15 55 0.0 0.0 0.00 0.00 0.00 48 1006.3
20260504041647 15 55 0.0 0.0 0.00 0.00 0.00 47 1006.5
20260504041148 16 55 0.0 0.0 0.00 0.00 0.00 47 1006.6
20260504040647 16 55 0.0 0.0 0.00 0.00 0.00 47 1006.7
20260504040147 16 55 0.0 0.0 0.00 0.00 0.00 46 1006.8
20260504035647 16 55 0.0 0.0 0.00 0.00 0.00 47 1006.8
20260504035147 16 55 0.0 0.0 0.00 0.00 0.00 46 1006.8
20260504034647 16 55 0.0 0.0 0.00 0.00 0.00 45 1006.9
20260504034147 16 55 0.0 0.0 0.00 0.00 0.00 44 1006.9
20260504033645 16 55 0.0 0.0 0.00 0.00 0.00 43 1006.9
20260504033145 17 55 0.0 0.0 0.00 0.00 0.00 43 1007.0
20260504032646 17 55 0.0 0.0 0.00 0.00 0.00 43 1007.0
20260504032146 17 55 0.0 0.0 0.00 0.00 0.00 44 1006.9
20260504031646 17 55 0.0 0.0 0.00 0.00 0.00 43 1006.9
20260504031145 17 55 0.0 0.0 0.00 0.00 0.00 42 1006.9
20260504030645 17 55 0.0 0.0 0.00 0.00 0.00 43 1006.9
20260504030147 17 55 0.0 0.0 0.00 0.00 0.00 42 1006.9
20260504025146 18 46 0.0 0.0 0.00 0.00 0.00 41 1007.0
20260504024643 18 46 0.0 0.0 0.00 0.00 0.00 41 1007.0
20260504024143 18 46 0.0 0.0 0.00 0.00 0.00 41 1007.0
20260504023643 18 20 0.0 0.0 0.00 0.00 0.00 41 1007.0
20260504023142 18 20 0.0 0.0 0.00 0.00 0.00 40 1007.0
20260504022642 18 20 0.0 0.0 0.00 0.00 0.00 39 1007.1
20260504022143 18 20 0.0 0.0 0.00 0.00 0.00 40 1007.1
20260504021641 18 20 0.0 0.0 0.00 0.00 0.00 40 1007.2
20260504021143 18 20 0.0 0.0 0.00 0.00 0.00 40 1007.2
20260504020642 19 20 0.0 0.0 0.00 0.00 0.00 40 1007.2
20260504020140 19 20 0.0 0.0 0.00 0.00 0.00 38 1007.3
20260504015639 20 20 0.0 0.0 0.00 0.00 0.00 38 1007.3
20260504015139 20 20 0.0 0.0 0.00 0.00 0.00 38 1007.2
20260504014638 20 20 0.0 0.0 0.00 0.00 0.00 37 1007.2
20260504013640 21 20 0.0 0.0 0.00 0.00 0.00 34 1007.2
20260504013139 21 20 0.0 0.0 0.00 0.00 0.00 33 1007.2
20260504012639 21 20 0.0 0.0 0.00 0.00 0.00 33 1007.2
20260504011639 21 20 0.0 0.0 0.00 0.00 0.00 33 1007.2
20260504011139 21 20 0.0 0.0 0.00 0.00 0.00 32 1007.1
20260504010638 21 20 0.0 0.0 0.00 0.00 0.00 32 1007.2
20260504010139 21 20 0.0 0.0 0.00 0.00 0.00 32 1007.3
20260504005638 22 20 0.0 0.0 0.00 0.00 0.00 31 1007.3
20260504005138 22 20 0.0 0.0 0.00 0.00 0.00 31 1007.4
20260504004137 22 20 0.0 0.0 0.00 0.00 0.00 30 1007.5
20260504003138 23 20 0.0 0.0 0.00 0.00 0.00 29 1007.6
20260504002638 23 49 0.0 0.0 0.00 0.00 0.00 29 1007.7
20260504002138 23 49 0.0 0.0 0.00 0.00 0.00 29 1007.7
20260504001635 23 60 0.0 0.0 0.00 0.00 0.00 28 1007.7
20260504001135 23 68 0.0 0.0 0.00 0.00 0.00 28 1007.8
20260503235635 23 349 0.0 0.0 0.00 0.00 0.00 27 1008.0